Tracking 27126 objects as of 30-Mar-2023
HD Live streaming from Space Station
objects crossing your sky now

GALS 2

Track GALS 2 now!
GALS 2 is classified as:


NORAD ID: 23717
Int'l Code: 1995-063A
Perigee: 35,872.9 km
Apogee: 35,929.4 km
Inclination: 14.1 °
Period: 1,441.6 minutes
Semi major axis: 42272 km
RCS: 8.9125 m2 (large)
Launch date: November 17, 1995
Source: Commonwealth of Independent States (former USSR) (CIS)
Launch site: TYURATAM MISSILE AND SPACE COMPLEX (TTMTR)
Your satellite tracking list
Your tracking list is empty




NASA's NSSDC Master Catalog

Two Line Element Set (TLE):
1 23717U 95063A   23088.50761262  .00000063  00000-0  00000-0 0  9992
2 23717  14.1111  11.2832 0006686 335.4331 220.8879  0.99889998 99885
Source of the keplerian elements: AFSPC